Location: *
(49.6619°S, 177.4603°W)
Time: 00:36:09
(UTC+00:00)

NOSS 3-4 (C) - Pass Details

Date: 31 January 2023
Orbit: 830 x 1382 km, 63.4° (Epoch: 19 March)

Event Time Altitude Azimuth Distance (km) Brightness Sun altitude
Rises 08:46:43 0° 334° (NNW) 4,426 6.7 -10.1°
Reaches altitude 10° 08:49:40 10° 336° (NNW) 3,452 6.2 -10.5°
Maximum altitude 08:58:05 65° 55° (NE) 1,459 4.2 -11.5°
Drops below altitude 10° 09:05:58 10° 134° (SE) 3,238 6.2 -12.4°
Sets 09:08:39 0° 136° (SE) 4,138 6.8 -12.6°
